Preview of NWS' New Version of Forecast
This preview is not operational and should not be used for support decisions.

Regional Weather Roundup (RWR)

Issued by National Weather Service (NWS)

                            
000
ASUS43 KDMX 241306
RWRIA 

WEATHER ROUNDUP FOR IOWA
NATIONAL WEATHER SERVICE DES MOINES IA
800 AM CDT MON JUN 24 2019

NOTE: "FAIR" INDICATES FEW OR NO CLOUDS BELOW 12,000 FEET WITH NO
SIGNIFICANT WEATHER AND/OR OBSTRUCTIONS TO VISIBILITY.

* - THESE STATIONS ARE NOT NWS STATIONS...THUS NOT UNDER NWS
QUALITY CONTROL.  THEY ALSO DO NOT REPORT WEATHER SUCH 
AS PRECIPITATION OR FOG.  

IAZ001>003-012>014-020>022-031>034-043>046-241400-
   NORTHWEST IOWA
  
CITY           SKY/WX    TMP DP  RH WIND       PRES   REMARKS
CARROLL *      CLOUDY    63  57  82 NW7       29.72R                  
CHEROKEE *     CLOUDY    61  58  91 W3        29.72R                  
DENISON *      SUNNY     59  59 100 W7        29.76R                  
LE MARS *      CLOUDY    61  59  94 SW3       29.71F                  
SHELDON *      MOSUNNY   61  61 100 W3        29.70S                  
SIOUX CITY     PTSUNNY   61  55  81 W3        29.73F                  
SPENCER        CLOUDY    64  58  80 NW7       29.70S                  
STORM LAKE *   SUNNY     61  59  94 NW9       29.69R                  
$$
 
IAZ055>058-069>071-079>083-090>094-241400-
   SOUTHWEST IOWA
  
CITY           SKY/WX    TMP DP  RH WIND       PRES   REMARKS
ATLANTIC *     PTSUNNY   61  61 100 W7        29.74S                  
AUDUBON *      PTSUNNY   61  57  88 CALM      29.75R                  
CLARINDA *     CLOUDY    63  59  88 W8        29.79R                  
COUNCIL BLFS * PTSUNNY   63  61  94 W8        29.76R                  
CRESTON *      CLOUDY    63  59  88 W8        29.75R                  
HARLAN  *      MOSUNNY   63  59  88 W7        29.75S                  
LAMONI         CLOUDY    63  59  87 NW12      29.75R                  
RED OAK *      MOSUNNY   63  59  88 W7        29.77S                  
SHENANDOAH *   PTSUNNY   63  57  82 W9G15     29.77R                  
$$
 
IAZ047>049-059>061-072>074-084-241400-
   CENTRAL IOWA
  
CITY           SKY/WX    TMP DP  RH WIND       PRES   REMARKS
AMES           CLOUDY    63  59  87 NW12      29.69R                  
ANKENY *       CLOUDY    63  59  88 W12       29.71R                  
BOONE *        CLOUDY    61  61 100 NW10G17   29.69R                  
CHARITON *     CLOUDY    64  63  94 NW12      29.71S                  
DES MOINES     DRIZZLE   62  58  86 NW14      29.69S                  
GRINNELL*      CLOUDY    62  61  94 W9        29.68S FOG              
KNOXVILLE *    CLOUDY    63  61  94 NW14      29.69S                  
MARSHALLTOWN   CLOUDY    63  62  97 W10G22    29.66R                  
NEWTON *       CLOUDY    63  61  94 W10G17    29.68R                  
PELLA *        CLOUDY    63  61  94 W13G20    29.69S                  
PERRY *        CLOUDY    62  60  93 NW7       29.71S                  
$$
 
IAZ004>006-015-016-023>025-035-036-241400-
   NORTH CENTRAL IOWA
  
CITY           SKY/WX    TMP DP  RH WIND       PRES   REMARKS
ALGONA *       CLOUDY    61  59  94 NW12G18   29.68R                  
CLARION *      CLOUDY    63  61  94 NW10      29.68R                  
ESTHERVILLE    CLOUDY    60  55  83 NW12      29.68S                  
FORT DODGE *   CLOUDY    61  58  90 NW8       29.70R                  
MASON CITY     CLOUDY    62  58  86 NW14      29.66S                  
FOREST CITY *  CLOUDY    64  61  88 NW12G17   29.66S                  
IOWA FALLS *   CLOUDY    63  60  93 W10       29.69R                  
$$

IAZ007>011-017>019-026>030-037>042-050>054-066-241400-
   NORTHEAST IOWA
  
CITY           SKY/WX    TMP DP  RH WIND       PRES   REMARKS
CEDAR RAPIDS   CLOUDY    67  66  97 W9        29.63S                  
CHARLES CITY * CLOUDY    63  63 100 NW7       29.64R                  
CLINTON *      CLOUDY    69  68  96 SW9       29.65R                  
DECORAH *      CLOUDY    66  64  94 W5        29.60S                  
DUBUQUE        PTSUNNY   67  65  93 W7        29.63S                  
MONTICELLO *   PTSUNNY   68  68 100 W8        29.63R                  
OELWEIN *      FAIR      66  66 100 W9G15     29.63S FOG              
WATERLOO       LGT RAIN  66  64  93 NW8       29.62F FOG              
$$
 
IAZ064-065-067-068-078-241400-
   EAST CENTRAL IOWA
  
CITY           SKY/WX    TMP DP  RH WIND       PRES   REMARKS
DAVENPORT      CLOUDY    69  65  86 SW10      29.67R                  
IOWA CITY      CLOUDY    69  65  86 W8        29.66R                  
MT. PLEASANT * PTSUNNY   68  68 100 W7        29.68R                  
MUSCATINE *    CLOUDY    70  66  88 W7        29.66S                  
QUAD CITIES    CLOUDY    71  67  87 SW8       29.65R                  
$$
 
IAZ062-063-075>077-085>089-095>099-241400-
   SOUTHEAST IOWA
  
CITY           SKY/WX    TMP DP  RH WIND       PRES   REMARKS
BURLINGTON     CLOUDY    68  65  90 W7        29.69R                  
FAIRFIELD *    MOSUNNY   68  64  88 W12       29.67S                  
FORT MADISON * PTSUNNY   68  66  94 CALM      29.70R                  
KEOKUK *       CLOUDY    68  66  94 W6        29.69R                  
OSKALOOSA *    CLOUDY    66  61  85 W16G22    29.67S                  
CENTERVILLE *  PTSUNNY   64  63  94 W17       29.72R                  
OTTUMWA        MOSUNNY   67  62  84 W17G28    29.67S                  
WASHINGTON *   CLOUDY    68  68 100 W9        29.65S                  
$$

ABBREVIATIONS USED IN REMARKS
   TC - TEMPERATURES IN CELSIUS
  WCI - WIND CHILL INDEX
   HX - HEAT INDEX
  VSB - VISIBILITY  
$$